Content
SEND FEEDBACK

Daily
Averages
Monthly
Summary
United States of America

CAPUTA, SOUTH DAKOTA


Home > North America > United States > South Dakota
Elevation: 3149 feet     Latitude: 44 03N     Longitude: 103 04W

WEATHER
 
SELECT A DAY
Number of Records: 200,504;   Date Range: 1/1/95 - 9/16/14
 
SHARE

PRINT THIS DATA

[ ← Previous Day ]
WEATHER ALMANAC - MARCH 29, 2013
[ Next Day → ]
[ °C ]   °F
Weather ElementAverageHighLow
Temperature51.9 °F69.1 °F (4:52 pm)36 °F (6:52 am)
Dewpoint28.6 °F33.1 °F (10:52 am)25 °F (5:52 am)
Humidity44.2 %67 % (7:52 am)21 % (4:52 pm)
Barometer30.01 in30.09 in (1:52 am)29.92 in (4:52 pm)
Wind Speed7.8 mph17.3 mph (8:52 pm)
Wind Gust24.2 mph (1:52 pm)
Weather ElementAverage
Visibility10 mi
Wind DirectionSSW (209.1 °)

Weather ElementTotal
Precipitation---
Heating Degree Days12.5 (Base 65)
Growing Degree Days2.6 (Base 50)
Averaged from 23 records on March 29, 2013
WEATHER CONDITIONS BREAKOUT
WIND DIRECTION BREAKOUT
WEATHER BY HOUR - MARCH 29, 2013
[ °C ]   °F
Local TimeTemperatureDewpointHumidityBarometerVisibilityWind DirectionWind SpeedGust SpeedPrecipitationEventsConditions
1:52 AM37.9 °F27.0 °F65 %30.09 in10.0 miCalmClear
2:52 AM39.9 °F27.0 °F60 %30.07 in10.0 miSW (220°)4.6 mphClear
3:52 AM37.0 °F26.1 °F65 %30.07 in10.0 miSouth (170°)3.5 mphClear
4:52 AM42.1 °F26.1 °F53 %30.04 in10.0 miSouth (180°)4.6 mphClear
5:52 AM39.0 °F25.0 °F57 %30.04 in10.0 miSE (140°)4.6 mphPartly Cloudy
6:52 AM36.0 °F25.0 °F64 %30.06 in10.0 miCalmClear
7:52 AM39.0 °F28.9 °F67 %30.07 in10.0 miESE (110°)3.5 mphClear
8:52 AM46.0 °F30.9 °F56 %30.06 in10.0 miSE (130°)5.8 mphScattered Clouds
9:52 AM52.0 °F30.9 °F45 %30.04 in10.0 miSE (140°)4.6 mphClear
10:52 AM60.1 °F33.1 °F36 %30.00 in10.0 miSE (140°)6.9 mphClear
11:52 AM66.9 °F30.0 °F25 %29.97 in10.0 miSSE (160°)9.2 mphScattered Clouds
12:52 PM66.9 °F27.0 °F22 %29.96 in10.0 miSouth (170°)8.1 mphOvercast
1:52 PM61.0 °F32.0 °F34 %29.99 in10.0 miNW (310°)15.0 mph24.2 mph0.00 inRainLight Rain
2:52 PM63.0 °F30.9 °F30 %29.96 in10.0 miNNW (330°)3.5 mph0.00 inOvercast
3:52 PM66.9 °F27.0 °F22 %29.94 in10.0 miVariable4.6 mphScattered Clouds
4:52 PM69.1 °F27.0 °F21 %29.92 in10.0 miWNW (300°)9.2 mphClear
5:52 PM63.0 °F25.0 °F24 %29.94 in10.0 miNW (310°)6.9 mphMostly Cloudy
6:52 PM60.1 °F28.9 °F31 %29.97 in10.0 miNorth (350°)15.0 mphClear
7:52 PM55.0 °F30.0 °F38 %30.00 in10.0 miNNW (340°)15.0 mphClear
8:52 PM53.1 °F30.0 °F41 %30.01 in10.0 miNNW (340°)17.3 mphClear
9:52 PM48.9 °F30.9 °F50 %30.01 in10.0 miNNW (330°)12.7 mphMostly Cloudy
10:52 PM44.1 °F30.0 °F58 %30.02 in10.0 miNW (310°)9.2 mphClear
11:52 PM46.9 °F30.0 °F52 %30.00 in10.0 miNNW (330°)16.1 mphClear
Hourly data recorded from KRAP, located miles away from Caputa, South Dakota







STORIES FROM OUR PARTNERS